Location: Carrières
(48.9495°N, 2.0407°E)
Time: 18:57:29
(UTC+00:00)

Altair - Pass Details

Date: 22 April 2024
Orbit: 1502 x 1682 km, 47.2° (Epoch: 21 May)

Event Time Altitude Azimuth Distance (km) Brightness Sun altitude
Rises 01:17:10 0° 290° (WNW) 4,815 10.1 -25.8°
Reaches altitude 10° 01:20:52 10° 279° (W) 3,798 9.4 -25.6°
Enters shadow 01:25:03 22° 257° (WSW) 2,903 8.6 -25.3°
